"FRM_AIS_EDR_2001.DAT           ",2005-08-06T00:52:09.58 ,"1/0071369524.27563",    0,    0,  274896,"AIS","B1","B1","B1","B1","PISd",0,0,0,1,"B1", 0,15,   0, 0,    0,"AIS","N/A    ","OK ","OK ",    001178.079,    -054.643,    0064.183,    0015.706,    0050.194
"FRM_AIS_EDR_2001.DAT           ",2005-08-06T00:52:17.12 ,"1/0071369531.63163",    0,    1,  274896,"AIS","B1","B1","B1","B1","PISd",0,0,0,1,"B1", 0,15,   0, 0,    0,"AIS","N/A    ","OK ","OK ",    001167.696,    -054.316,    0064.210,    0015.710,    0050.153
"FRM_AIS_EDR_2001.DAT           ",2005-08-06T00:52:24.66 ,"1/0071369539.33226",    0,    2,  274896,"AIS","B1","B1","B1","B1","PISd",0,0,0,1,"B1", 0,15,   0, 0,    0,"AIS","N/A    ","OK ","OK ",    001157.344,    -053.989,    0064.236,    0015.714,    0050.112
"FRM_AIS_EDR_2001.DAT           ",2005-08-06T00:52:32.21 ,"1/0071369547.03289",    0,    3,  274896,"AIS","B1","B1","B1","B1","PISd",0,0,0,1,"B1", 0,15,   0, 0,    0,"AIS","N/A    ","OK ","OK ",    001147.024,    -053.659,    0064.262,    0015.717,    0050.074
"FRM_AIS_EDR_2001.DAT           ",2005-08-06T00:52:39.75 ,"1/0071369554.38889",    0,    4,  274896,"AIS","B1","B1","B1","B1","PISd",0,0,0,1,"B1", 0,15,   0, 0,    0,"AIS","N/A    ","OK ","OK ",    001136.736,    -053.329,    0064.287,    0015.721,    0050.036
"FRM_AIS_EDR_2001.DAT           ",2005-08-06T00:52:47.29 ,"1/0071369562.08952",    0,    5,  274896,"AIS","B1","B1","B1","B1","PISd",0,0,0,1,"B1", 0,15,   0, 0,    0,"AIS","N/A    ","OK ","OK ",    001126.482,    -052.996,    0064.311,    0015.725,    0050.000
"FRM_AIS_EDR_2001.DAT           ",2005-08-06T00:52:54.84 ,"1/0071369569.44551",    0,    6,  274896,"AIS","B1","B1","B1","B1","PISd",0,0,0,1,"B1", 0,15,   0, 0,    0,"AIS","N/A    ","OK ","OK ",    001116.260,    -052.662,    0064.335,    0015.728,    0049.965
"FRM_AIS_EDR_2001.DAT           ",2005-08-06T00:53:02.38 ,"1/0071369577.14615",    0,    7,  274896,"AIS","B1","B1","B1","B1","PISd",0,0,0,1,"B1", 0,15,   0, 0,    0,"AIS","N/A    ","OK ","OK ",    001106.072,    -052.327,    0064.358,    0015.732,    0049.932
"FRM_AIS_EDR_2001.DAT           ",2005-08-06T00:53:09.92 ,"1/0071369584.50214",    0,    8,  274896,"AIS","B1","B1","B1","B1","PISd",0,0,0,1,"B1", 0,15,   0, 0,    0,"AIS","N/A    ","OK ","OK ",    001095.919,    -051.990,    0064.380,    0015.736,    0049.901
"FRM_AIS_EDR_2001.DAT           ",2005-08-06T00:53:17.47 ,"1/0071369592.20277",    0,    9,  274896,"AIS","B1","B1","B1","B1","PISd",0,0,0,1,"B1", 0,15,   0, 0,    0,"AIS","N/A    ","OK ","OK ",    001085.801,    -051.652,    0064.402,    0015.739,    0049.870
"FRM_AIS_EDR_2001.DAT           ",2005-08-06T00:53:25.01 ,"1/0071369599.55877",    0,   10,  274896,"AIS","B1","B1","B1","B1","PISd",0,0,0,1,"B1", 0,15,   0, 0,    0,"AIS","N/A    ","OK ","OK ",    001075.718,    -051.312,    0064.424,    0015.742,    0049.842
"FRM_AIS_EDR_2001.DAT           ",2005-08-06T00:53:32.55 ,"1/0071369607.25940",    0,   11,  274896,"AIS","B1","B1","B1","B1","PISd",0,0,0,1,"B1", 0,15,   0, 0,    0,"AIS","N/A    ","OK ","OK ",    001065.671,    -050.970,    0064.444,    0015.746,    0049.815
"FRM_AIS_EDR_2001.DAT           ",2005-08-06T00:53:40.10 ,"1/0071369614.61539",    0,   12,  274896,"AIS","B1","B1","B1","B1","PISd",0,0,0,1,"B1", 0,15,   0, 0,    0,"AIS","N/A    ","OK ","OK ",    001055.661,    -050.627,    0064.465,    0015.749,    0049.789
"FRM_AIS_EDR_2001.DAT           ",2005-08-06T00:53:47.64 ,"1/0071369622.31603",    0,   13,  274896,"AIS","B1","B1","B1","B1","PISd",0,0,0,1,"B1", 0,15,   0, 0,    0,"AIS","N/A    ","OK ","OK ",    001045.687,    -050.282,    0064.485,    0015.753,    0049.766
"FRM_AIS_EDR_2001.DAT           ",2005-08-06T00:53:55.18 ,"1/0071369630.01666",    0,   14,  274896,"AIS","B1","B1","B1","B1","PISd",0,0,0,1,"B1", 0,15,   0, 0,    0,"AIS","N/A    ","OK ","OK ",    001035.751,    -049.936,    0064.504,    0015.756,    0049.744
"FRM_AIS_EDR_2001.DAT           ",2005-08-06T00:54:02.73 ,"1/0071369637.37265",    0,   15,  274896,"AIS","B1","B1","B1","B1","PISd",0,0,0,1,"B1", 0,15,   0, 0,    0,"AIS","N/A    ","OK ","OK ",    001025.854,    -049.589,    0064.523,    0015.759,    0049.723
"FRM_AIS_EDR_2001.DAT           ",2005-08-06T00:54:10.27 ,"1/0071369645.07329",    0,   16,  274896,"AIS","B1","B1","B1","B1","PISd",0,0,0,1,"B1", 0,15,   0, 0,    0,"AIS","N/A    ","OK ","OK ",    001015.994,    -049.239,    0064.541,    0015.762,    0049.704
"FRM_AIS_EDR_2001.DAT           ",2005-08-06T00:54:17.81 ,"1/0071369652.42928",    0,   17,  274896,"AIS","B1","B1","B1","B1","PISd",0,0,0,1,"B1", 0,15,   0, 0,    0,"AIS","N/A    ","OK ","OK ",    001006.175,    -048.888,    0064.559,    0015.766,    0049.687
"FRM_AIS_EDR_2001.DAT           ",2005-08-06T00:54:25.35 ,"1/0071369660.12991",    0,   18,  274896,"AIS","B1","B1","B1","B1","PISd",0,0,0,1,"B1", 0,15,   0, 0,    0,"AIS","N/A    ","OK ","OK ",    000996.394,    -048.536,    0064.576,    0015.769,    0049.672
"FRM_AIS_EDR_2001.DAT           ",2005-08-06T00:54:32.90 ,"1/0071369667.48591",    0,   19,  274896,"AIS","B1","B1","B1","B1","PISd",0,0,0,1,"B1", 0,15,   0, 0,    0,"AIS","N/A    ","OK ","OK ",    000986.655,    -048.182,    0064.593,    0015.772,    0049.659
"FRM_AIS_EDR_2001.DAT           ",2005-08-06T00:54:40.44 ,"1/0071369675.18654",    0,   20,  274896,"AIS","B1","B1","B1","B1","PISd",0,0,0,1,"B1", 0,15,   0, 0,    0,"AIS","N/A    ","OK ","OK ",    000976.956,    -047.826,    0064.610,    0015.775,    0049.647
"FRM_AIS_EDR_2001.DAT           ",2005-08-06T00:54:47.98 ,"1/0071369682.54253",    0,   21,  274896,"AIS","B1","B1","B1","B1","PISd",0,0,0,1,"B1", 0,15,   0, 0,    0,"AIS","N/A    ","OK ","OK ",    000967.298,    -047.469,    0064.626,    0015.778,    0049.637
"FRM_AIS_EDR_2001.DAT           ",2005-08-06T00:54:55.53 ,"1/0071369690.24317",    0,   22,  274896,"AIS","B1","B1","B1","B1","PISd",0,0,0,1,"B1", 0,15,   0, 0,    0,"AIS","N/A    ","OK ","OK ",    000957.683,    -047.110,    0064.641,    0015.781,    0049.630
"FRM_AIS_EDR_2001.DAT           ",2005-08-06T00:55:03.07 ,"1/0071369697.59916",    0,   23,  274896,"AIS","B1","B1","B1","B1","PISd",0,0,0,1,"B1", 0,15,   0, 0,    0,"AIS","N/A    ","OK ","OK ",    000948.110,    -046.750,    0064.657,    0015.784,    0049.624
"FRM_AIS_EDR_2001.DAT           ",2005-08-06T00:55:10.61 ,"1/0071369705.29979",    0,   24,  274896,"AIS","B1","B1","B1","B1","PISd",0,0,0,1,"B1", 0,15,   0, 0,    0,"AIS","N/A    ","OK ","OK ",    000938.580,    -046.388,    0064.671,    0015.787,    0049.619
"FRM_AIS_EDR_2001.DAT           ",2005-08-06T00:55:18.16 ,"1/0071369713.00043",    0,   25,  274896,"AIS","B1","B1","B1","B1","PISd",0,0,0,1,"B1", 0,15,   0, 0,    0,"AIS","N/A    ","OK ","OK ",    000929.095,    -046.024,    0064.686,    0015.791,    0049.617
"FRM_AIS_EDR_2001.DAT           ",2005-08-06T00:55:25.70 ,"1/0071369720.35642",    0,   26,  274896,"AIS","B1","B1","B1","B1","PISd",0,0,0,1,"B1", 0,15,   0, 0,    0,"AIS","N/A    ","OK ","OK ",    000919.653,    -045.659,    0064.700,    0015.794,    0049.617
"FRM_AIS_EDR_2001.DAT           ",2005-08-06T00:55:33.24 ,"1/0071369728.05705",    0,   27,  274896,"AIS","B1","B1","B1","B1","PISd",0,0,0,1,"B1", 0,15,   0, 0,    0,"AIS","N/A    ","OK ","OK ",    000910.257,    -045.292,    0064.713,    0015.796,    0049.619
"FRM_AIS_EDR_2001.DAT           ",2005-08-06T00:55:40.79 ,"1/0071369735.41305",    0,   28,  274896,"AIS","B1","B1","B1","B1","PISd",0,0,0,1,"B1", 0,15,   0, 0,    0,"AIS","N/A    ","OK ","OK ",    000900.906,    -044.924,    0064.727,    0015.799,    0049.623
"FRM_AIS_EDR_2001.DAT           ",2005-08-06T00:55:48.33 ,"1/0071369743.11368",    0,   29,  274896,"AIS","B1","B1","B1","B1","PISd",0,0,0,1,"B1", 0,15,   0, 0,    0,"AIS","N/A    ","OK ","OK ",    000891.601,    -044.554,    0064.739,    0015.802,    0049.629
"FRM_AIS_EDR_2001.DAT           ",2005-08-06T00:55:55.87 ,"1/0071369750.46967",    0,   30,  274896,"AIS","B1","B1","B1","B1","PISd",0,0,0,1,"B1", 0,15,   0, 0,    0,"AIS","N/A    ","OK ","OK ",    000882.343,    -044.182,    0064.752,    0015.805,    0049.637
"FRM_AIS_EDR_2001.DAT           ",2005-08-06T00:56:03.42 ,"1/0071369758.17031",    0,   31,  274896,"AIS","B1","B1","B1","B1","PISd",0,0,0,1,"B1", 0,15,   0, 0,    0,"AIS","N/A    ","OK ","OK ",    000873.133,    -043.809,    0064.764,    0015.808,    0049.647
"FRM_AIS_EDR_2001.DAT           ",2005-08-06T00:56:10.96 ,"1/0071369765.52630",    0,   32,  274896,"AIS","B1","B1","B1","B1","PISd",0,0,0,1,"B1", 0,15,   0, 0,    0,"AIS","N/A    ","OK ","OK ",    000863.970,    -043.435,    0064.776,    0015.811,    0049.659
"FRM_AIS_EDR_2001.DAT           ",2005-08-06T00:56:18.50 ,"1/0071369773.22693",    0,   33,  274896,"AIS","B1","B1","B1","B1","PISd",0,0,0,1,"B1", 0,15,   0, 0,    0,"AIS","N/A    ","OK ","OK ",    000854.856,    -043.058,    0064.787,    0015.814,    0049.674
"FRM_AIS_EDR_2001.DAT           ",2005-08-06T00:56:26.05 ,"1/0071369780.58293",    0,   34,  274896,"AIS","B1","B1","B1","B1","PISd",0,0,0,1,"B1", 0,15,   0, 0,    0,"AIS","N/A    ","OK ","OK ",    000845.792,    -042.680,    0064.798,    0015.816,    0049.690
"FRM_AIS_EDR_2001.DAT           ",2005-08-06T00:56:33.59 ,"1/0071369788.28356",    0,   35,  274896,"AIS","B1","B1","B1","B1","PISd",0,0,0,1,"B1", 0,15,   0, 0,    0,"AIS","N/A    ","OK ","OK ",    000836.777,    -042.300,    0064.809,    0015.819,    0049.709
"FRM_AIS_EDR_2001.DAT           ",2005-08-06T00:56:41.13 ,"1/0071369795.63955",    0,   36,  274896,"AIS","B1","B1","B1","B1","PISd",0,0,0,1,"B1", 0,15,   0, 0,    0,"AIS","N/A    ","OK ","OK ",    000827.813,    -041.919,    0064.819,    0015.822,    0049.730
"FRM_AIS_EDR_2001.DAT           ",2005-08-06T00:56:48.68 ,"1/0071369803.34018",    0,   37,  274896,"AIS","B1","B1","B1","B1","PISd",0,0,0,1,"B1", 0,15,   0, 0,    0,"AIS","N/A    ","OK ","OK ",    000818.899,    -041.536,    0064.829,    0015.824,    0049.754
"FRM_AIS_EDR_2001.DAT           ",2005-08-06T00:56:56.22 ,"1/0071369811.04082",    0,   38,  274896,"AIS","B1","B1","B1","B1","PISd",0,0,0,1,"B1", 0,15,   0, 0,    0,"AIS","N/A    ","OK ","OK ",    000810.038,    -041.152,    0064.839,    0015.827,    0049.779
"FRM_AIS_EDR_2001.DAT           ",2005-08-06T00:57:03.76 ,"1/0071369818.39681",    0,   39,  274896,"AIS","B1","B1","B1","B1","PISd",0,0,0,1,"B1", 0,15,   0, 0,    0,"AIS","N/A    ","OK ","OK ",    000801.229,    -040.766,    0064.849,    0015.830,    0049.807
"FRM_AIS_EDR_2001.DAT           ",2005-08-06T00:57:11.31 ,"1/0071369826.09744",    0,   40,  274896,"AIS","B1","B1","B1","B1","PISd",0,0,0,1,"B1", 0,15,   0, 0,    0,"AIS","N/A    ","OK ","OK ",    000792.473,    -040.378,    0064.858,    0015.832,    0049.837
"FRM_AIS_EDR_2001.DAT           ",2005-08-06T00:57:18.85 ,"1/0071369833.45344",    0,   41,  274896,"AIS","B1","B1","B1","B1","PISd",0,0,0,1,"B1", 0,15,   0, 0,    0,"AIS","N/A    ","OK ","OK ",    000783.771,    -039.989,    0064.867,    0015.835,    0049.870
"FRM_AIS_EDR_2001.DAT           ",2005-08-06T00:57:26.39 ,"1/0071369841.15407",    0,   42,  274896,"AIS","B1","B1","B1","B1","PISd",0,0,0,1,"B1", 0,15,   0, 0,    0,"AIS","N/A    ","OK ","OK ",    000775.123,    -039.598,    0064.875,    0015.838,    0049.905
"FRM_AIS_EDR_2001.DAT           ",2005-08-06T00:57:33.93 ,"1/0071369848.51006",    0,   43,  274896,"AIS","B1","B1","B1","B1","PISd",0,0,0,1,"B1", 0,15,   0, 0,    0,"AIS","N/A    ","OK ","OK ",    000766.530,    -039.205,    0064.884,    0015.840,    0049.943
"FRM_AIS_EDR_2001.DAT           ",2005-08-06T00:57:41.48 ,"1/0071369856.21070",    0,   44,  274896,"AIS","B1","B1","B1","B1","PISd",0,0,0,1,"B1", 0,15,   0, 0,    0,"AIS","N/A    ","OK ","OK ",    000757.993,    -038.811,    0064.892,    0015.843,    0049.982
"FRM_AIS_EDR_2001.DAT           ",2005-08-06T00:57:49.02 ,"1/0071369863.56669",    0,   45,  274896,"AIS","B1","B1","B1","B1","PISd",0,0,0,1,"B1", 0,15,   0, 0,    0,"AIS","N/A    ","OK ","OK ",    000749.512,    -038.415,    0064.900,    0015.846,    0050.025
"FRM_AIS_EDR_2001.DAT           ",2005-08-06T00:57:56.56 ,"1/0071369871.26732",    0,   46,  274896,"AIS","B1","B1","B1","B1","PISd",0,0,0,1,"B1", 0,15,   0, 0,    0,"AIS","N/A    ","OK ","OK ",    000741.088,    -038.018,    0064.907,    0015.848,    0050.070
"FRM_AIS_EDR_2001.DAT           ",2005-08-06T00:58:04.11 ,"1/0071369878.62332",    0,   47,  274896,"AIS","B1","B1","B1","B1","PISd",0,0,0,1,"B1", 0,15,   0, 0,    0,"AIS","N/A    ","OK ","OK ",    000732.722,    -037.619,    0064.914,    0015.851,    0050.117
"FRM_AIS_EDR_2001.DAT           ",2005-08-06T00:58:11.65 ,"1/0071369886.32395",    0,   48,  274896,"AIS","B1","B1","B1","B1","PISd",0,0,0,1,"B1", 0,15,   0, 0,    0,"AIS","N/A    ","OK ","OK ",    000724.414,    -037.218,    0064.921,    0015.853,    0050.167
"FRM_AIS_EDR_2001.DAT           ",2005-08-06T00:58:19.19 ,"1/0071369894.02458",    0,   49,  274896,"AIS","B1","B1","B1","B1","PISd",0,0,0,1,"B1", 0,15,   0, 0,    0,"AIS","N/A    ","OK ","OK ",    000716.164,    -036.816,    0064.928,    0015.856,    0050.219
"FRM_AIS_EDR_2001.DAT           ",2005-08-06T00:58:26.74 ,"1/0071369901.38058",    0,   50,  274896,"AIS","B1","B1","B1","B1","PISd",0,0,0,1,"B1", 0,15,   0, 0,    0,"AIS","N/A    ","OK ","OK ",    000707.975,    -036.412,    0064.935,    0015.858,    0050.274
"FRM_AIS_EDR_2001.DAT           ",2005-08-06T00:58:34.28 ,"1/0071369909.08121",    0,   51,  274896,"AIS","B1","B1","B1","B1","PISd",0,0,0,1,"B1", 0,15,   0, 0,    0,"AIS","N/A    ","OK ","OK ",    000699.846,    -036.007,    0064.941,    0015.861,    0050.332
"FRM_AIS_EDR_2001.DAT           ",2005-08-06T00:58:41.82 ,"1/0071369916.43720",    0,   52,  274896,"AIS","B1","B1","B1","B1","PISd",0,0,0,1,"B1", 0,15,   0, 0,    0,"AIS","N/A    ","OK ","OK ",    000691.777,    -035.600,    0064.947,    0015.863,    0050.392
"FRM_AIS_EDR_2001.DAT           ",2005-08-06T00:58:49.37 ,"1/0071369924.13784",    0,   53,  274896,"AIS","B1","B1","B1","B1","PISd",0,0,0,1,"B1", 0,15,   0, 0,    0,"AIS","N/A    ","OK ","OK ",    000683.771,    -035.191,    0064.953,    0015.865,    0050.455
"FRM_AIS_EDR_2001.DAT           ",2005-08-06T00:58:56.91 ,"1/0071369931.49383",    0,   54,  274896,"AIS","B1","B1","B1","B1","PISd",0,0,0,1,"B1", 0,15,   0, 0,    0,"AIS","N/A    ","OK ","OK ",    000675.827,    -034.781,    0064.958,    0015.868,    0050.520
"FRM_AIS_EDR_2001.DAT           ",2005-08-06T00:59:04.45 ,"1/0071369939.19446",    0,   55,  274896,"AIS","B1","B1","B1","B1","PISd",0,0,0,1,"B1", 0,15,   0, 0,    0,"AIS","N/A    ","OK ","OK ",    000667.945,    -034.369,    0064.963,    0015.870,    0050.588
"FRM_AIS_EDR_2001.DAT           ",2005-08-06T00:59:12.00 ,"1/0071369946.55046",    0,   56,  274896,"AIS","B1","B1","B1","B1","PISd",0,0,0,1,"B1", 0,15,   0, 0,    0,"AIS","N/A    ","OK ","OK ",    000660.128,    -033.956,    0064.969,    0015.873,    0050.659
"FRM_AIS_EDR_2001.DAT           ",2005-08-06T00:59:19.54 ,"1/0071369954.25109",    0,   57,  274896,"AIS","B1","B1","B1","B1","PISd",0,0,0,1,"B1", 0,15,   0, 0,    0,"AIS","N/A    ","OK ","OK ",    000652.374,    -033.541,    0064.973,    0015.875,    0050.732
"FRM_AIS_EDR_2001.DAT           ",2005-08-06T00:59:27.08 ,"1/0071369961.60708",    0,   58,  274896,"AIS","B1","B1","B1","B1","PISd",0,0,0,1,"B1", 0,15,   0, 0,    0,"AIS","N/A    ","OK ","OK ",    000644.686,    -033.125,    0064.978,    0015.877,    0050.809
"FRM_AIS_EDR_2001.DAT           ",2005-08-06T00:59:34.63 ,"1/0071369969.30772",    0,   59,  274896,"AIS","B1","B1","B1","B1","PISd",0,0,0,1,"B1", 0,15,   0, 0,    0,"AIS","N/A    ","OK ","OK ",    000637.063,    -032.707,    0064.983,    0015.880,    0050.888
"FRM_AIS_EDR_2001.DAT           ",2005-08-06T00:59:42.17 ,"1/0071369977.00835",    0,   60,  274896,"AIS","B1","B1","B1","B1","PISd",0,0,0,1,"B1", 0,15,   0, 0,    0,"AIS","N/A    ","OK ","OK ",    000629.507,    -032.287,    0064.987,    0015.882,    0050.969
"FRM_AIS_EDR_2001.DAT           ",2005-08-06T00:59:49.71 ,"1/0071369984.36434",    0,   61,  274896,"AIS","B1","B1","B1","B1","PISd",0,0,0,1,"B1", 0,15,   0, 0,    0,"AIS","N/A    ","OK ","OK ",    000622.018,    -031.866,    0064.991,    0015.884,    0051.054
"FRM_AIS_EDR_2001.DAT           ",2005-08-06T00:59:57.26 ,"1/0071369992.06498",    0,   62,  274896,"AIS","B1","B1","B1","B1","PISd",0,0,0,1,"B1", 0,15,   0, 0,    0,"AIS","N/A    ","OK ","OK ",    000614.597,    -031.443,    0064.995,    0015.887,    0051.141
"FRM_AIS_EDR_2001.DAT           ",2005-08-06T01:00:04.80 ,"1/0071369999.42097",    0,   63,  274896,"AIS","B1","B1","B1","B1","PISd",0,0,0,1,"B1", 0,15,   0, 0,    0,"AIS","N/A    ","OK ","OK ",    000607.244,    -031.019,    0064.999,    0015.889,    0051.231
"FRM_AIS_EDR_2001.DAT           ",2005-08-06T01:00:12.34 ,"1/0071370007.12160",    0,   64,  274896,"AIS","B1","B1","B1","B1","PISd",0,0,0,1,"B1", 0,15,   0, 0,    0,"AIS","N/A    ","OK ","OK ",    000599.960,    -030.593,    0065.002,    0015.891,    0051.324
"FRM_AIS_EDR_2001.DAT           ",2005-08-06T01:00:19.89 ,"1/0071370014.47760",    0,   65,  274896,"AIS","B1","B1","B1","B1","PISd",0,0,0,1,"B1", 0,15,   0, 0,    0,"AIS","N/A    ","OK ","OK ",    000592.746,    -030.165,    0065.006,    0015.893,    0051.419
"FRM_AIS_EDR_2001.DAT           ",2005-08-06T01:00:27.43 ,"1/0071370022.17823",    0,   66,  274896,"AIS","B1","B1","B1","B1","PISd",0,0,0,1,"B1", 0,15,   0, 0,    0,"AIS","N/A    ","OK ","OK ",    000585.603,    -029.737,    0065.009,    0015.896,    0051.518
"FRM_AIS_EDR_2001.DAT           ",2005-08-06T01:00:34.97 ,"1/0071370029.53422",    0,   67,  274896,"AIS","B1","B1","B1","B1","PISd",0,0,0,1,"B1", 0,15,   0, 0,    0,"AIS","N/A    ","OK ","OK ",    000578.531,    -029.306,    0065.012,    0015.898,    0051.619
"FRM_AIS_EDR_2001.DAT           ",2005-08-06T01:00:42.51 ,"1/0071370037.23486",    0,   68,  274896,"AIS","B1","B1","B1","B1","PISd",0,0,0,1,"B1", 0,15,   0, 0,    0,"AIS","N/A    ","OK ","OK ",    000571.530,    -028.874,    0065.015,    0015.900,    0051.723
"FRM_AIS_EDR_2001.DAT           ",2005-08-06T01:00:50.06 ,"1/0071370044.59085",    0,   69,  274896,"AIS","B1","B1","B1","B1","PISd",0,0,0,1,"B1", 0,15,   0, 0,    0,"AIS","N/A    ","OK ","OK ",    000564.603,    -028.441,    0065.017,    0015.902,    0051.830
"FRM_AIS_EDR_2001.DAT           ",2005-08-06T01:00:57.60 ,"1/0071370052.29148",    0,   70,  274896,"AIS","B1","B1","B1","B1","PISd",0,0,0,1,"B1", 0,15,   0, 0,    0,"AIS","N/A    ","OK ","OK ",    000557.748,    -028.006,    0065.020,    0015.904,    0051.940
"FRM_AIS_EDR_2001.DAT           ",2005-08-06T01:01:05.14 ,"1/0071370059.64747",    0,   71,  274896,"AIS","B1","B1","B1","B1","PISd",0,0,0,1,"B1", 0,15,   0, 0,    0,"AIS","N/A    ","OK ","OK ",    000550.967,    -027.569,    0065.022,    0015.907,    0052.052
"FRM_AIS_EDR_2001.DAT           ",2005-08-06T01:01:12.69 ,"1/0071370067.34811",    0,   72,  274896,"AIS","B1","B1","B1","B1","PISd",0,0,0,1,"B1", 0,15,   0, 0,    0,"AIS","N/A    ","OK ","OK ",    000544.261,    -027.131,    0065.025,    0015.909,    0052.168
"FRM_AIS_EDR_2001.DAT           ",2005-08-06T01:01:20.23 ,"1/0071370075.04874",    0,   73,  274896,"AIS","B1","B1","B1","B1","PISd",0,0,0,1,"B1", 0,15,   0, 0,    0,"AIS","N/A    ","OK ","OK ",    000537.630,    -026.692,    0065.027,    0015.911,    0052.286
"FRM_AIS_EDR_2001.DAT           ",2005-08-06T01:01:27.77 ,"1/0071370082.40473",    0,   74,  274896,"AIS","B1","B1","B1","B1","PISd",0,0,0,1,"B1", 0,15,   0, 0,    0,"AIS","N/A    ","OK ","OK ",    000531.075,    -026.251,    0065.029,    0015.913,    0052.408
"FRM_AIS_EDR_2001.DAT           ",2005-08-06T01:01:35.32 ,"1/0071370090.10537",    0,   75,  274896,"AIS","B1","B1","B1","B1","PISd",0,0,0,1,"B1", 0,15,   0, 0,    0,"AIS","N/A    ","OK ","OK ",    000524.597,    -025.809,    0065.030,    0015.915,    0052.532
"FRM_AIS_EDR_2001.DAT           ",2005-08-06T01:01:42.86 ,"1/0071370097.46136",    0,   76,  274896,"AIS","B1","B1","B1","B1","PISd",0,0,0,1,"B1", 0,15,   0, 0,    0,"AIS","N/A    ","OK ","OK ",    000518.196,    -025.365,    0065.032,    0015.918,    0052.659
"FRM_AIS_EDR_2001.DAT           ",2005-08-06T01:01:50.40 ,"1/0071370105.16199",    0,   77,  274896,"AIS","B1","B1","B1","B1","PISd",0,0,0,1,"B1", 0,15,   0, 0,    0,"AIS","N/A    ","OK ","OK ",    000511.873,    -024.920,    0065.033,    0015.920,    0052.789
"FRM_AIS_EDR_2001.DAT           ",2005-08-06T01:01:57.95 ,"1/0071370112.51799",    0,   78,  274896,"AIS","B1","B1","B1","B1","PISd",0,0,0,1,"B1", 0,15,   0, 0,    0,"AIS","N/A    ","OK ","OK ",    000505.628,    -024.473,    0065.035,    0015.922,    0052.922
"FRM_AIS_EDR_2001.DAT           ",2005-08-06T01:02:05.49 ,"1/0071370120.21862",    0,   79,  274896,"AIS","B1","B1","B1","B1","PISd",0,0,0,1,"B1", 0,15,   0, 0,    0,"AIS","N/A    ","OK ","OK ",    000499.463,    -024.025,    0065.036,    0015.924,    0053.057
"FRM_AIS_EDR_2001.DAT           ",2005-08-06T01:02:13.03 ,"1/0071370127.57461",    0,   80,  274896,"AIS","B1","B1","B1","B1","PISd",0,0,0,1,"B1", 0,15,   0, 0,    0,"AIS","N/A    ","OK ","OK ",    000493.378,    -023.576,    0065.037,    0015.926,    0053.196
"FRM_AIS_EDR_2001.DAT           ",2005-08-06T01:02:20.58 ,"1/0071370135.27525",    0,   81,  274896,"AIS","B1","B1","B1","B1","PISd",0,0,0,1,"B1", 0,15,   0, 0,    0,"AIS","N/A    ","OK ","OK ",    000487.373,    -023.125,    0065.038,    0015.928,    0053.337
"FRM_AIS_EDR_2001.DAT           ",2005-08-06T01:02:28.12 ,"1/0071370142.63124",    0,   82,  274896,"AIS","B1","B1","B1","B1","PISd",0,0,0,1,"B1", 0,15,   0, 0,    0,"AIS","N/A    ","OK ","OK ",    000481.450,    -022.673,    0065.039,    0015.930,    0053.482
"FRM_AIS_EDR_2001.DAT           ",2005-08-06T01:02:35.66 ,"1/0071370150.33187",    0,   83,  274896,"AIS","B1","B1","B1","B1","PISd",0,0,0,1,"B1", 0,15,   0, 0,    0,"AIS","N/A    ","OK ","OK ",    000475.608,    -022.220,    0065.040,    0015.932,    0053.629
"FRM_AIS_EDR_2001.DAT           ",2005-08-06T01:02:43.21 ,"1/0071370158.03251",    0,   84,  274896,"AIS","B1","B1","B1","B1","PISd",0,0,0,1,"B1", 0,15,   0, 0,    0,"AIS","N/A    ","OK ","OK ",    000469.849,    -021.765,    0065.041,    0015.934,    0053.779
"FRM_AIS_EDR_2001.DAT           ",2005-08-06T01:02:50.75 ,"1/0071370165.38850",    0,   85,  274896,"AIS","B1","B1","B1","B1","PISd",0,0,0,1,"B1", 0,15,   0, 0,    0,"AIS","N/A    ","OK ","OK ",    000464.173,    -021.309,    0065.041,    0015.936,    0053.932
"FRM_AIS_EDR_2001.DAT           ",2005-08-06T01:02:58.29 ,"1/0071370173.08913",    0,   86,  274896,"AIS","B1","B1","B1","B1","PISd",0,0,0,1,"B1", 0,15,   0, 0,    0,"AIS","N/A    ","OK ","OK ",    000458.581,    -020.851,    0065.042,    0015.939,    0054.088
"FRM_AIS_EDR_2001.DAT           ",2005-08-06T01:03:05.84 ,"1/0071370180.44513",    0,   87,  274896,"AIS","B1","B1","B1","B1","PISd",0,0,0,1,"B1", 0,15,   0, 0,    0,"AIS","N/A    ","OK ","OK ",    000453.074,    -020.392,    0065.042,    0015.941,    0054.247
"FRM_AIS_EDR_2001.DAT           ",2005-08-06T01:03:13.38 ,"1/0071370188.14576",    0,   88,  274896,"AIS","B1","B1","B1","B1","PISd",0,0,0,1,"B1", 0,15,   0, 0,    0,"AIS","N/A    ","OK ","OK ",    000447.651,    -019.932,    0065.042,    0015.943,    0054.409
"FRM_AIS_EDR_2001.DAT           ",2005-08-06T01:03:20.92 ,"1/0071370195.50175",    0,   89,  274896,"AIS","B1","B1","B1","B1","PISd",0,0,0,1,"B1", 0,15,   0, 0,    0,"AIS","N/A    ","OK ","OK ",    000442.314,    -019.471,    0065.042,    0015.945,    0054.573
"FRM_AIS_EDR_2001.DAT           ",2005-08-06T01:03:28.47 ,"1/0071370203.20239",    0,   90,  274896,"AIS","B1","B1","B1","B1","PISd",0,0,0,1,"B1", 0,15,   0, 0,    0,"AIS","N/A    ","OK ","OK ",    000437.064,    -019.008,    0065.043,    0015.947,    0054.741